This demonstration page uses our WeatherBlox Daily Observations layout. Learn more.

Left ArrowRight Arrow

34.16533, -84.80231

Hourly Observations for October 23, 2020

Temp ( °F °C ) Dew Point ( °F °C ) Humidity (%) Winds ( mph kmh ) Pressure ( in mb ) Visibility ( mi km ) Precip ( " mm )
12:53 am 00:53 Mostly Clear 66 18.9 62 16.7 87 87 Calm 30.11 1020 10 16 0.00 0.00
1:53 am 01:53 Clear 64 17.8 61 16.1 90 90 Calm 30.10 1019 9 14 0.00 0.00
2:53 am 02:53 Cloudy 63 17.2 61 16.1 93 93 Calm 30.10 1019 10 16 0.00 0.00
3:53 am 03:53 Cloudy 64 17.8 61 16.1 90 90 Calm 30.09 1019 10 16 0.00 0.00
4:53 am 04:53 Cloudy 66 18.9 63 17.2 90 90 Calm 30.09 1019 10 16 0.00 0.00
5:53 am 05:53 Cloudy 67 19.4 63 17.2 87 87 Calm 30.10 1019 10 16 0.00 0.00
6:53 am 06:53 Cloudy 67 19.4 64 17.8 91 91 Calm 30.11 1020 10 16 0.00 0.00
7:53 am 07:53 Cloudy 67 19.4 64 17.8 91 91 Calm 30.12 1020 10 16 0.00 0.00
8:53 am 08:53 Cloudy 69 20.6 64 17.8 84 84 VRB 3 6 30.11 1020 10 16 0.00 0.00
9:53 am 09:53 Mostly Cloudy 71 21.7 65 18.3 81 81 ESE 3 6 30.13 1020 10 16 0.00 0.00
10:36 am 10:36 Cloudy 75 23.9 66 18.9 74 74 SE 8 13 30.13 1020 10 16 0.00 0.00
10:43 am 10:43 Cloudy 75 23.9 66 18.9 74 74 ESE 6 9 30.13 1020 10 16 0.00 0.00
10:53 am 10:53 Cloudy 76 24.4 66 18.9 72 72 ESE 6 9 30.13 1020 10 16 0.00 0.00
11:53 am 11:53 Cloudy 78 25.6 65 18.3 64 64 S 5 7 30.12 1020 10 16 0.00 0.00
12:53 pm 12:53 Mostly Cloudy 79 26.1 64 17.8 60 60 Calm 30.11 1020 10 16 0.00 0.00
1:53 pm 13:53 Mostly Sunny 80 26.7 63 17.2 56 56 S 5 7 30.07 1018 10 16 0.00 0.00
2:53 pm 14:53 Mostly Cloudy 80 26.7 64 17.8 58 58 SE 6 9 30.04 1017 10 16 0.00 0.00
3:53 pm 15:53 Mostly Cloudy 79 26.1 64 17.8 60 60 SSE 6 9 30.03 1017 10 16 0.00 0.00
4:53 pm 16:53 Mostly Cloudy 81 27.2 63 17.2 54 54 Calm 30.01 1016 10 16 0.00 0.00
5:53 pm 17:53 Sunny 79 26.1 65 18.3 62 62 SSE 3 6 30.01 1016 10 16 0.00 0.00
6:53 pm 18:53 Sunny 70 21.1 66 18.9 87 87 Calm 30.00 1016 10 16 0.00 0.00
7:53 pm 19:53 Clear 67 19.4 64 17.8 91 91 Calm 30.01 1016 10 16 0.00 0.00
8:53 pm 20:53 Clear 67 19.4 64 17.8 91 91 Calm 30.02 1017 10 16 0.00 0.00
9:53 pm 21:53 Clear 65 18.3 63 17.2 93 93 Calm 30.03 1017 10 16 0.00 0.00
10:53 pm 22:53 Clear 65 18.3 62 16.7 90 90 Calm 30.04 1017 10 16 0.00 0.00
11:53 pm 23:53 Clear 64 17.8 61 16.1 90 90 Calm 30.03 1017 10 16 0.00 0.00

Powered by AerisWeather